www.pogodaiklimat.ru

Погода и климат >> Архив погоды >> Ирак >> Khanaqin


ПОГОДА в Khanaqin

  • Прогноз погоды в Khanaqin
  • Монитор погоды в Khanaqin
  • Климат города

АРХИВ ПОГОДЫ в Khanaqin

Время (UTC), дата Ветер
(напр.,м/с)
 
Видим.   Явления Облачность Т
(С)
Тd
(С)
f
(%)
Тe
(С)
Тes
(С)
Комфортность P
(гПа)
Po
(гПа)
Тmin
(С)
Tmax
(С)
R
(мм)
R24
(мм)
S
(см)
15 14.11 Ю 3 10 км 9/9 750 м
[Cu Sc]
+20.0 +14.1 69 +22 +22 комфорт 1012.0 1012.0
18 14.11 штиль 0 10 км 9/9 750 м
[Cu Sc]
+18.0 +13.4 74 +18 +18 1012.6 1013.0 +25.2
21 14.11 штиль 0 10 км 8/8 750 м
[Cu Sc]
+17.0 +11.3 69 +17 +17 1012.9 1013.0
12 15.11 З 1 10 км 3/0
[Ci fib]
+21.4 +13.2 60 +24 +27 комфорт 1013.0 1013.0
15 15.11 штиль 0 10 км 9/9 750 м
[Cu Sc]
+19.9 +14.5 71 +22 +22 комфорт 1012.7 1013.0
18 15.11 штиль 0 10 км 9/9 750 м
[Cb cap]
+18.9 +15.6 81 +20 +20 1013.7 1014.0 +23.3
21 15.11 штиль 0 10 км 4/0
[Ci sp]
+17.1 +11.2 68 +17 +17 1013.7 1014.0
06 16.11 штиль 0 10 км 4/0
[Ac trans Ci fib]
+16.5 +11.0 70 +16 +20 1015.0 1015.0 +15.1
09 16.11 штиль 0 10 км 6/0
[Ac trans Ci fib]
+19.0 +11.4 61 +20 +27 1014.6 1015.0
12 16.11 З 2 10 км ясно +22.3 +14.1 60 +26 +28 жарко 1017.3 1017.0
15 16.11 штиль 0 10 км ясно +18.1 +12.4 69 +18 +18 1017.7 1018.0
18 16.11 штиль 0 10 км ясно +16.0 +10.1 68 +16 +16 1020.9 1021.0 +24.0
21 16.11 штиль 0 10 км ясно +15.0 +8.8 66 +15 +15 1020.8 1021.0
06 17.11 штиль 0 10 км ясно +15.0 +8.9 67 +15 +19 1023.7 1024.0 +12.0
09 17.11 штиль 0 10 км ясно +19.5 +12.4 64 +21 +31 комфорт 1023.3 1023.0
12 17.11 З 2 10 км ясно +23.0 +14.5 59 +27 +29 душно 1021.3 1021.0
18 17.11 штиль 0 10 км ясно +16.0 +11.2 73 +16 +16 1022.1 1022.0 +24.8
06 18.11 штиль 0 10 км 3/0
[Ci fib]
+12.7 +9.7 82 +12 +16 1022.2 1022.0 +9.5
09 18.11 Ю 2 10 км 1/0
[Ci fib]
+19.1 +13.5 70 +21 +28 комфорт 1022.0 1022.0
12 18.11 З 2 10 км ясно +22.9 +13.3 55 +26 +29 жарко 1019.7 1020.0
15 18.11 штиль 0 10 км ясно +18.5 +12.4 68 +19 +19 1019.4 1019.0
18 18.11 штиль 0 10 км ясно +14.0 +11.3 84 +14 +14 1017.0 1017.0 +24.0
21 18.11 штиль 0 10 км ясно +11.8 +8.8 82 +11 +11 1020.8 1021.0
06 19.11 штиль 0 10 км 1/0
[Ci fib]
+14.0 +9.5 74 +14 +17 1020.2 1020.0 +8.5
12 19.11 З 2 10 км 6/0
[Ac trans Ci sp]
+19.0 +11.0 60 +20 +22 1019.2 1019.0
15 19.11 штиль 0 10 км 6/0
[Ac trans Ci fib]
+17.9 +12.4 70 +18 +18 1019.5 1020.0
18 19.11 штиль 0 10 км 4/0
[Ci fib]
+14.0 +10.7 80 +14 +14 1020.0 1020.0 +21.0
21 19.11 штиль 0 10 км 3/0
[Ci fib]
+13.0 +10.4 84 +13 +13 1020.2 1020.0
06 20.11 штиль 0 10 км 3/0
[Ci fib]
+14.4 +8.8 69 +14 +18 1020.2 1020.0 +10.0
09 20.11 Ю 1 10 км ясно +19.1 +14.3 74 +21 +30 комфорт 1019.7 1020.0
12 20.11 З 2 10 км ясно +22.4 +11.3 49 +25 +27 комфорт 1018.7 1019.0
15 20.11 штиль 0 10 км ясно +18.1 +13.5 74 +18 +18 1019.0 1019.0
18 20.11 штиль 0 10 км ясно +14.0 +8.7 70 +14 +14 1020.0 1020.0 +24.5
21 20.11 штиль 0 10 км ясно +13.1 +8.9 76 +13 +13 1020.2 1020.0
06 21.11 штиль 0 10 км ясно +14.8 +9.4 70 +15 +18 1020.2 1020.0 +9.5
09 21.11 З 2 10 км ясно +18.4 +12.5 68 +19 +27 1019.8 1020.0

 

Местоположение метеостанции Khanaqin (Ирак): широта 34.30 долгота 45.43 высота над уровнем моря 202 м.

В архиве по умолчанию представлена погода в Khanaqin за последнюю неделю. Архивные данные за месяц целиком и за предыдущие месяцы, начиная с января 2011 года, Вы можете получить, выбрав интересующий диапазон дат из раскрывающегося списка и нажав кнопку "Ввод!".


*Определитесь, кто Вы:
робот инопланетянин человек

Внимание! Время в таблицах - всемирное. Для получения местного времени необходимо прибавить поправку, которая в Khanaqin равна 3 ч.

Смотрите также архив погоды в соседних городах и на ближайших метеорологических станциях:

Погода в Tuz (Ирак) (96 км)
Погода в Al-Khalis (Ирак) (98 км)
Погода в Ayn Al-Tamar (Ирак) (106 км)
Погода в Halabcha (Ирак) (111 км)
Погода в Ilam (Иран) (119 км)
Погода в Sulaimaniya (Ирак) (139 км)
Погода в Badrah (Ирак) (142 км)
Погода в Chamchamal (Ирак) (146 км)
Погода в Kermanshah (Иран) (155 км)
Погода в Azizyah (Ирак) (157 км)

Пояснения к столбцам:

Ветер - указаны скорость ветра в м/с - средняя за 10 мин, порывы в срок и между сроками (в фигурных скобках) и направление, откуда дует ветер: С - северный, СВ - северо-восточный, В - восточный, ЮВ - юго-восточный, Ю - южный, ЮЗ - юго-западный, З - западный, СЗ - северо-западный.
Видимость - горизонтальная дальность видимости в метрах или километрах. При видимости от 1 до 10 км при отсутствии осадков обычно наблюдается дымка, при ухудшении видимости до 1 км и менее - туман. В сухую погоду видимость может ухудшаться дымом, пылью или мглою.
Явления - указаны атмосферные явления, наблюдавшиеся в срок или в последний час перед сроком; фигурными скобками обозначены явления, наблюдавшиеся между сроками (за 1-3 часа до срока); квадратными скобками обозначены град или гололедные отложения с указанием их диаметра в мм.
Облачность - указаны через наклонную черту общая и нижняя облачность в баллах и высота нижней границы облаков в метрах; квадратными скобками обозначены формы облаков: Ci - перистые, Cs - перисто-слоистые, Cc - перисто-кучевые, Ac - высококучевые, As - высокослоистые, Sc - слоисто-кучевые, Ns - слоисто-дождевые, Cu - кучевые, Cb - кучево-дождевые. Подробнее классификацию облаков см. в Атласе облаков (PDF).
T - Температура воздуха - температура, измеренная на высоте 2 м над землей.
Td - Температура точки росы - температура, при понижении до которой содержащийся в воздухе водяной пар достигнет насыщения.
f - Относительная влажность воздуха - влажноcть воздуха, измеренная на высоте 2 м над землей.
Te - Эффективная температура - температура, которую ощущает одетый по сезону человек в тени. Характеристика душности погоды. При расчете учитывается влияние влажности воздуха и скорости ветра на теплоощущения человека.
Tes - Эффективная температура на солнце - температура, которую ощущает человек, с поправкой на солнечный нагрев. Характеристика знойности погоды. Зависит от высоты солнца над горизонтом, облачности и скорости ветра. Ночью, в пасмурную погоду, а также при ветре 12 м/с и более поправка равна нулю.
P - Атмосферное давление - приведенное к уровню моря атмосферное давление.
Po - Атмосферное давление - измеренное на уровне метеостанции атмосферное давление.
Tmin - Минимальная температура - минимум температуры воздуха на высоте 2 м над землей.
Tmax - Максимальная температура - максимум температуры воздуха на высоте 2 м над землей.
R - Количество осадков - Количество выпавших осадков за период времени, мм. При наведении курсора мыши на число - период времени, за который выпало указанное количество осадков.
R24 - Количество осадков - Количество выпавших осадков за 24 часа, мм.
S - Снежный покров - Высота снежного покрова, см. При наведении курсора мыши на число - состояние снежного покрова и степень покрытия местности в баллах.